This is the latest recevied weather packets stored in our database for station/object KC5EZZ-2. If no packets are shown the sender has not sent any weather packets the latest 10 day(s).
| Time | Temp. | Humidity | Pressure | Rain* | Wind** | Luminosity | Snow |
|---|---|---|---|---|---|---|---|
| 1777766216 | 21.11° C | - | - | 0 mm | 0 m/s | - | - |
| 1777765914 | 20.56° C | - | - | 0 mm | 0.45 m/s, 94° | - | - |
| 1777765614 | 21.11° C | - | - | 0 mm | 0 m/s | - | - |
| 1777765314 | 20.56° C | - | - | 0 mm | 0 m/s | - | - |
| 1777765012 | 21.11° C | - | - | 0 mm | 0.45 m/s, 45° | - | - |
| 1777764712 | 21.11° C | - | - | 0 mm | 0 m/s | - | - |
| 1777764413 | 21.11° C | - | - | 0 mm | 0 m/s | - | - |
| 1777764111 | 21.67° C | - | - | 0 mm | 0 m/s | - | - |
| 1777763810 | 21.67° C | - | - | 0 mm | 1.34 m/s, 66° | - | - |
| 1777763511 | 22.22° C | - | - | 0 mm | 0 m/s | - | - |
| 1777763208 | 21.67° C | - | - | 0 mm | 0.89 m/s, 3° | - | - |
| 1777762909 | 21.67° C | - | - | 0 mm | 0 m/s | - | - |
| 1777762609 | 21.11° C | - | - | 0 mm | 0.89 m/s, 38° | - | - |
| 1777762307 | 21.67° C | - | - | 0 mm | 2.24 m/s, 65° | - | - |
| 1777762007 | 22.22° C | - | - | 0 mm | 1.79 m/s, 7° | - | - |
| 1777761708 | 21.67° C | - | - | 0 mm | 1.34 m/s, 84° | - | - |
| 1777761405 | 21.67° C | - | - | 0 mm | 2.24 m/s, 59° | - | - |
| 1777761106 | 21.67° C | - | - | 0 mm | 1.34 m/s, 48° | - | - |
| 1777760806 | 21.11° C | - | - | 0 mm | 2.24 m/s, 97° | - | - |
| 1777760504 | 21.11° C | - | - | 0 mm | 2.68 m/s, 98° | - | - |
| 1777760204 | 21.11° C | - | - | 0 mm | 2.24 m/s, 75° | - | - |
| 1777759905 | 21.67° C | - | - | 0 mm | 0.45 m/s, 75° | - | - |
| 1777759602 | 22.22° C | - | - | 0 mm | 2.24 m/s, 49° | - | - |
| 1777759303 | 22.78° C | - | - | 0 mm | 1.34 m/s, 51° | - | - |
| 1777759003 | 23.89° C | - | - | 0 mm | 0.89 m/s, 211° | - | - |
* Rain latest hour (hover to see other rain measurements)
** Current wind speed in m/s (hover to see current wind gust speed)